Powrót do katalogu

SL-16 DEB

AktywnyLEO
NORAD 22367·DEBRIS·🇷🇺 Russia

Wystrzelony Dec 25, 1992 z Baikonur Cosmodrome

Loading…

Następne Przeloty (najbliższe 24 godziny)

TLE

ŚwieżeSource: Space-Track

Epoka: Sep 13, 2026, 23:21 UTC

1 22367U 92093BG  26256.97322652  .00000009  00000-0  43726-4 0  9995
2 22367  70.8997  81.7948 0188805 265.1012 249.7710 13.83434741700359

Śledź SL-16 DEB w czasie rzeczywistym z AllMySat

Download on the App Store